This is the latest recevied weather packets stored in our database for station/object WC4PEM-9. If no packets are shown the sender has not sent any weather packets the latest 10 day(s).
| Time | Temp. | Humidity | Pressure | Rain* | Wind** | Luminosity | Snow |
|---|---|---|---|---|---|---|---|
| 1787846006 | 31.11° C | 75% | 1017 hPa | 0 mm | - | - | - |
| 1787845935 | 31.11° C | 75% | 1017 hPa | 0 mm | - | - | - |
| 1787845635 | 30.56° C | 77% | 1016.8 hPa | 0 mm | - | - | - |
| 1787845458 | 30.56° C | 77% | 1016.8 hPa | 0 mm | - | - | - |
| 1787845335 | 30.56° C | 77% | 1016.8 hPa | 0 mm | - | - | - |
| 1787845150 | 30.56° C | 76% | 1016.9 hPa | 0 mm | - | - | - |
| 1787845035 | 30.56° C | 76% | 1016.9 hPa | 0 mm | - | - | - |
| 1787844959 | 30.56° C | 77% | 1016.9 hPa | 0 mm | - | - | - |
| 1787844735 | 30.56° C | 77% | 1016.9 hPa | 0 mm | - | - | - |
| 1787844435 | 30.56° C | 77% | 1016.9 hPa | 0 mm | - | - | - |
| 1787844258 | 30° C | 78% | 1016.9 hPa | 0 mm | - | - | - |
| 1787844135 | 30° C | 78% | 1016.9 hPa | 0 mm | - | - | - |
| 1787844009 | 30° C | 80% | 1016.9 hPa | 0 mm | - | - | - |
| 1787843835 | 30° C | 80% | 1016.9 hPa | 0 mm | - | - | - |
| 1787843628 | 29.44° C | 78% | 1016.7 hPa | 0 mm | - | - | - |
| 1787843535 | 29.44° C | 78% | 1016.7 hPa | 0 mm | - | - | - |
| 1787843235 | 29.44° C | 81% | 1016.8 hPa | 0 mm | - | - | - |
| 1787842935 | 29.44° C | 81% | 1016.9 hPa | 0 mm | - | - | - |
| 1787842635 | 29.44° C | 81% | 1016.9 hPa | 0 mm | - | - | - |
| 1787842408 | 29.44° C | 82% | 1016.9 hPa | 0 mm | - | - | - |
| 1787842335 | 29.44° C | 82% | 1016.9 hPa | 0 mm | - | - | - |
| 1787842035 | 29.44° C | 81% | 1016.9 hPa | 0 mm | - | - | - |
| 1787841735 | 29.44° C | 83% | 1016.9 hPa | 0 mm | - | - | - |
| 1787841435 | 29.44° C | 85% | 1016.8 hPa | 0 mm | - | - | - |
| 1787841135 | 29.44° C | 83% | 1016.9 hPa | 0 mm | - | - | - |
* Rain latest hour (hover to see other rain measurements)
** Current wind speed in m/s (hover to see current wind gust speed)